Weather History for Tekamah, NE

Change the Weather History Date:

Thursday, August 8, 2013

  Actual Average Record
Temperature  
Mean Temperature 70 °F -  
Max Temperature 82 °F 87 °F 102 °F (1988)
Min Temperature 60 °F 64 °F 51 °F (1989)
Cooling Degree Days 6    
Growing Degree Days 20 (Base 50)    
Moisture  
Dew Point 63 °F    
Average Humidity 79    
Maximum Humidity 93    
Minimum Humidity 52    
Precipitation  
Precipitation 0.00 in - - ()
Sea Level Pressure  
Sea Level Pressure 29.99 in    
Wind  
Wind Speed 1 mph (South)    
Max Wind Speed 7 mph    
Max Gust Speed -    
Visibility 8 miles    
Events      
Averages and records for this station are not official NWS values.
T = Trace of Precipitation, MM = Missing Value Source: NWS Daily Summary

Daily Weather History Graph

Daily Weather History Graph

Search for Another Location

Airport:

Trip Planner

Search our weather history database for the weather conditions in past years. The results will help you decide how hot, cold, wet, or windy it might be!

Date:

Astronomy

Aug. 08, 2013 Rise Set
Actual Time 6:26 AM CDT 8:33 PM CDT
Civil Twilight 5:55 AM CDT 9:04 PM CDT
Nautical Twilight 5:17 AM CDT 9:41 PM CDT
Astronomical Twilight 4:36 AM CDT 10:22 PM CDT
Moon 8:16 AM CDT (8/8) 9:09 PM CDT (8/8)
Length of Visible Light 15h 08m
Length of Day
14h 07m
Waxing Crescent, 3% of the Moon is Illuminated
Aug 8
Waxing Crescent
Aug 14
First Quarter
Aug 20
Full
Aug 28
Last Quarter
Sep 5
New

Hourly Weather History & Observations

Time (CDT) Temp. Heat Index Dew Point Humidity Pressure Visibility Wind Dir Wind Speed Gust Speed Precip Events Conditions
12:54 AM 64.0 °F - 61.0 °F 90% 29.98 in 9.0 mi Calm Calm - N/A   Clear
1:54 AM 64.0 °F - 60.1 °F 87% 29.98 in 10.0 mi Calm Calm - N/A   Clear
2:54 AM 62.1 °F - 60.1 °F 93% 29.98 in 8.0 mi Calm Calm - N/A   Clear
3:54 AM 61.0 °F - 57.9 °F 90% 29.96 in 7.0 mi Calm Calm - N/A   Clear
4:54 AM 61.0 °F - 59.0 °F 93% 29.94 in 5.0 mi Calm Calm - N/A   Clear
5:54 AM 60.1 °F - 57.0 °F 90% 29.96 in 7.0 mi Calm Calm - N/A   Clear
6:54 AM 60.1 °F - 57.9 °F 93% 29.99 in 5.0 mi Calm Calm - N/A   Clear
7:54 AM 63.0 °F - 61.0 °F 93% 30.00 in 4.0 mi Calm Calm - N/A   Clear
8:54 AM 66.0 °F - 62.1 °F 87% 30.00 in 5.0 mi South 5.8 mph - N/A   Clear
9:54 AM 68.0 °F - 63.0 °F 84% 30.01 in 7.0 mi South 6.9 mph - N/A   Mostly Cloudy
10:54 AM 70.0 °F - 63.0 °F 78% 30.01 in 8.0 mi Calm Calm - N/A   Mostly Cloudy
11:54 AM 73.0 °F - 63.0 °F 71% 29.99 in 10.0 mi South 3.5 mph - N/A   Partly Cloudy
12:54 PM 75.0 °F - 63.0 °F 66% 30.00 in 10.0 mi Calm Calm - N/A   Partly Cloudy
1:54 PM 78.1 °F - 64.9 °F 64% 30.01 in 9.0 mi Variable 3.5 mph - N/A   Overcast
2:54 PM 81.0 °F 81.9 °F 62.1 °F 52% 30.00 in 10.0 mi WNW 6.9 mph - N/A   Clear
3:54 PM 79.0 °F - 60.1 °F 52% 29.99 in 10.0 mi Calm Calm - N/A   Mostly Cloudy
4:54 PM 80.1 °F 81.9 °F 64.9 °F 60% 29.99 in 10.0 mi SE 3.5 mph - N/A   Partly Cloudy
5:54 PM 80.1 °F 81.2 °F 62.1 °F 54% 29.99 in 10.0 mi Calm Calm - N/A   Scattered Clouds
6:54 PM 78.1 °F - 66.9 °F 68% 29.98 in 10.0 mi South 4.6 mph - N/A   Mostly Cloudy
7:54 PM 73.9 °F - 68.0 °F 82% 29.97 in 9.0 mi Calm Calm - N/A   Clear
8:54 PM 72.0 °F - 68.0 °F 87% 29.97 in 7.0 mi SSW 4.6 mph - N/A   Scattered Clouds
9:54 PM 70.0 °F - 66.9 °F 90% 29.98 in 7.0 mi Calm Calm - N/A   Clear
10:54 PM 66.9 °F - 64.9 °F 93% 29.98 in 6.0 mi SSW 4.6 mph - N/A   Clear
11:54 PM 66.9 °F - 64.0 °F 90% 30.00 in 6.0 mi Calm Calm - N/A   Clear